Location: Haliburton Scout Reserve
(45.0900°N, 78.3200°W)
Time: 18:58:16
(UTC-04:00)

Courier 1B Rocket - Pass Details

Date: 15 February 2023
Orbit: 920 x 1202 km, 28.2° (Epoch: 22 March)

Event Time Altitude Azimuth Distance (km) Brightness Sun altitude
Rises 13:06:45 0° 236° (SW) 3,956 8.8 31.6°
Reaches altitude 10° 13:10:29 10° 220° (SW) 2,944 8.6 31.5°
Maximum altitude 13:15:15 19° 178° (S) 2,279 8.7 31.3°
Drops below altitude 10° 13:19:48 10° 136° (SE) 2,802 7.9 31.1°
Sets 13:23:14 0° 119° (ESE) 3,701 8.2 31.0°
